Location: Napa Soda Springs
(38.3907°N, 122.2794°W)
Time: 20:40:16
(UTC+00:00)

COSMOS 2406 - Pass Details

Date: 29 October 2020
Orbit: 843 x 864 km, 71.0° (Epoch: 24 November)

Event Time Altitude Azimuth Distance (km) Brightness Sun altitude
Exits shadow 12:41:46 27° 328° (NNW) 1,585 4.3 -22.3°
Drops below altitude 10° 12:45:15 10° 2° (N) 2,471 5.6 -21.6°
Sets 12:48:01 0° 13° (NNE) 3,411 6.5 -21.1°
